• In Spain
  • List of Countries
  • For 7 days
  • Water Temperature
  • Satellite Maps
  • Weather Map
  • Weather Widgets
  • user-avatar
    Login

    Hourly Weather La Massana

    Today, 21 August, Monday

    Time Temperature Precipitation Wind Pressure Humidity
    00:00 +8°C° 0 mm 2 mps 616 mmHg 54%
    01:00 +8°C° 0 mm 2 mps 616 mmHg 50%
    02:00 +8°C° 0 mm 2 mps 616 mmHg 47%
    03:00 +8°C° 0 mm 2 mps 615 mmHg 44%
    04:00 +10°C° 0 mm 1 mps 615 mmHg 43%
    05:00 +10°C° 0 mm 1 mps 616 mmHg 42%
    06:00 +10°C° 0 mm 1 mps 616 mmHg 42%
    07:00 +13°C° 0 mm 1 mps 617 mmHg 38%
    08:00 +16°C° 0 mm 1 mps 618 mmHg 34%
    09:00 +21°C° 0 mm 1 mps 620 mmHg 30%
    10:00 +22°C° 0 mm 1 mps 620 mmHg 29%
    11:00 +23°C° 0 mm 1 mps 620 mmHg 28%
    12:00 +25°C° 0 mm 1 mps 620 mmHg 27%
    13:00 +25°C° 0 mm 1 mps 620 mmHg 28%
    14:00 +25°C° 0 mm 2 mps 620 mmHg 29%
    15:00 +25°C° 0 mm 2 mps 619 mmHg 30%
    16:00 +23°C° 0 mm 1 mps 619 mmHg 37%
    17:00 +21°C° 0 mm 1 mps 618 mmHg 45%
    18:00 +19°C° 0 mm 1 mps 617 mmHg 52%
    19:00 +18°C° 0 mm 1 mps 616 mmHg 58%
    20:00 +15°C° 0 mm 1 mps 616 mmHg 65%
    21:00 +13°C° 0 mm 1 mps 616 mmHg 71%
    22:00 +13°C° 0 mm 1 mps 615 mmHg 73%
    23:00 +13°C° 0 mm 1 mps 615 mmHg 75%

    Tomorrow, 22 August, Tuesday

    Time Temperature Precipitation Wind Pressure Humidity
    00:00 +12°C° 0 mm 1 mps 615 mmHg 78%
    01:00 +12°C° 0 mm 1 mps 615 mmHg 78%
    02:00 +12°C° 0 mm 1 mps 615 mmHg 79%
    03:00 +12°C° 0 mm 1 mps 614 mmHg 80%
    04:00 +12°C° 0 mm 1 mps 615 mmHg 79%
    05:00 +13°C° 0 mm 1 mps 615 mmHg 78%
    06:00 +13°C° 0 mm 1 mps 615 mmHg 78%
    07:00 +16°C° 0 mm 1 mps 616 mmHg 66%
    08:00 +19°C° 0 mm 2 mps 617 mmHg 54%
    09:00 +23°C° 0 mm 2 mps 618 mmHg 42%
    10:00 +24°C° 0 mm 2 mps 619 mmHg 38%
    11:00 +25°C° 0 mm 2 mps 619 mmHg 34%
    12:00 +27°C° 0 mm 2 mps 619 mmHg 29%
    13:00 +27°C° 0 mm 2 mps 619 mmHg 30%
    14:00 +27°C° 0 mm 2 mps 619 mmHg 30%
    15:00 +27°C° 0 mm 2 mps 618 mmHg 31%
    16:00 +25°C° 0 mm 2 mps 618 mmHg 39%
    17:00 +23°C° 0 mm 1 mps 617 mmHg 47%
    18:00 +21°C° 0 mm 1 mps 616 mmHg 55%
    19:00 +19°C° 0 mm 1 mps 616 mmHg 60%
    20:00 +16°C° 0 mm 1 mps 616 mmHg 66%
    21:00 +14°C° 0 mm 1 mps 615 mmHg 72%
    22:00 +14°C° 0.1 mm 1 mps 615 mmHg 73%
    23:00 +14°C° 0.1 mm 1 mps 615 mmHg 74%

    Day after tomorrow, 23 August, Wednesday

    Time Temperature Precipitation Wind Pressure Humidity
    00:00 +13°C° 0.1 mm 1 mps 615 mmHg 76%
    01:00 +13°C° 0 mm 1 mps 615 mmHg 76%
    02:00 +12°C° 0 mm 0 mps 614 mmHg 75%
    03:00 +11°C° 0 mm 0 mps 614 mmHg 75%
    04:00 +12°C° 0.1 mm 0 mps 615 mmHg 75%
    05:00 +12°C° 0.1 mm 0 mps 615 mmHg 74%
    06:00 +13°C° 0.1 mm 1 mps 615 mmHg 74%
    07:00 +15°C° 0.1 mm 1 mps 616 mmHg 66%
    08:00 +18°C° 0.1 mm 1 mps 617 mmHg 58%
    09:00 +20°C° 0.1 mm 2 mps 618 mmHg 51%
    10:00 +21°C° 0.2 mm 2 mps 618 mmHg 48%
    11:00 +23°C° 0.2 mm 2 mps 618 mmHg 46%
    12:00 +24°C° 0.2 mm 3 mps 619 mmHg 43%
    13:00 +22°C° 0.3 mm 3 mps 618 mmHg 44%
    14:00 +22°C° 0.3 mm 3 mps 618 mmHg 45%
    15:00 +22°C° 0.3 mm 3 mps 618 mmHg 47%
    16:00 +21°C° 0.2 mm 2 mps 617 mmHg 53%
    17:00 +19°C° 0.2 mm 2 mps 617 mmHg 59%
    18:00 +18°C° 0.2 mm 2 mps 616 mmHg 65%
    19:00 +16°C° 0.2 mm 1 mps 616 mmHg 70%
    20:00 +15°C° 0.2 mm 1 mps 615 mmHg 75%
    21:00 +13°C° 0.2 mm 1 mps 615 mmHg 80%
    22:00 +13°C° 0 mm 1 mps 615 mmHg 80%
    23:00 +13°C° 0 mm 1 mps 614 mmHg 80%

    24 August, Thursday

    Time Temperature Precipitation Wind Pressure Humidity
    00:00 +13°C° 0 mm 1 mps 614 mmHg 80%
    01:00 +12°C° 0 mm 1 mps 614 mmHg 78%
    02:00 +12°C° 0 mm 1 mps 614 mmHg 76%
    03:00 +12°C° 0 mm 1 mps 613 mmHg 74%
    04:00 +12°C° 0 mm 1 mps 614 mmHg 72%
    05:00 +12°C° 0 mm 1 mps 614 mmHg 70%
    06:00 +12°C° 0 mm 1 mps 614 mmHg 69%
    07:00 +15°C° 0 mm 1 mps 615 mmHg 61%
    08:00 +17°C° 0 mm 2 mps 616 mmHg 53%
    09:00 +20°C° 0 mm 2 mps 617 mmHg 45%
    10:00 +21°C° 0 mm 3 mps 618 mmHg 42%
    11:00 +22°C° 0 mm 3 mps 618 mmHg 39%
    12:00 +24°C° 0 mm 3 mps 618 mmHg 36%
    13:00 +25°C° 0 mm 3 mps 618 mmHg 35%
    14:00 +25°C° 0 mm 3 mps 618 mmHg 35%
    15:00 +25°C° 0 mm 3 mps 617 mmHg 35%
    16:00 +22°C° 0.1 mm 3 mps 616 mmHg 42%
    17:00 +20°C° 0.1 mm 2 mps 616 mmHg 49%
    18:00 +18°C° 0.1 mm 2 mps 615 mmHg 56%
    19:00 +17°C° 0.6 mm 2 mps 615 mmHg 59%
    20:00 +15°C° 0.6 mm 1 mps 614 mmHg 63%
    21:00 +14°C° 0.6 mm 1 mps 614 mmHg 67%
    22:00 +13°C° 0.1 mm 1 mps 614 mmHg 67%
    23:00 +13°C° 0.1 mm 1 mps 614 mmHg 67%

    25 August, Friday

    Time Temperature Precipitation Wind Pressure Humidity
    00:00 +12°C° 0.1 mm 1 mps 613 mmHg 67%
    01:00 +12°C° 0 mm 1 mps 613 mmHg 65%
    02:00 +12°C° 0 mm 1 mps 613 mmHg 62%
    03:00 +11°C° 0 mm 1 mps 612 mmHg 60%
    04:00 +11°C° 0 mm 1 mps 613 mmHg 62%
    05:00 +11°C° 0 mm 1 mps 613 mmHg 64%
    06:00 +12°C° 0 mm 1 mps 613 mmHg 65%
    07:00 +14°C° 0 mm 2 mps 614 mmHg 60%
    08:00 +16°C° 0 mm 2 mps 615 mmHg 56%
    09:00 +18°C° 0 mm 3 mps 616 mmHg 51%
    10:00 +19°C° 0 mm 3 mps 616 mmHg 49%
    11:00 +19°C° 0 mm 3 mps 616 mmHg 47%
    12:00 +20°C° 0 mm 4 mps 616 mmHg 46%
    13:00 +20°C° 0.2 mm 4 mps 615 mmHg 49%
    14:00 +19°C° 0.2 mm 3 mps 615 mmHg 52%
    15:00 +18°C° 0.2 mm 3 mps 614 mmHg 56%
    16:00 +18°C° 0.1 mm 2 mps 614 mmHg 59%
    17:00 +17°C° 0.1 mm 2 mps 613 mmHg 62%
    18:00 +16°C° 0.1 mm 2 mps 613 mmHg 64%
    19:00 +15°C° 0.1 mm 1 mps 613 mmHg 70%
    20:00 +13°C° 0.1 mm 1 mps 612 mmHg 75%
    21:00 +12°C° 0.1 mm 1 mps 612 mmHg 80%
    22:00 +11°C° 0.1 mm 1 mps 612 mmHg 80%
    23:00 +11°C° 0.1 mm 1 mps 611 mmHg 79%

    26 August, Saturday

    Time Temperature Precipitation Wind Pressure Humidity
    00:00 +11°C° 0.1 mm 1 mps 611 mmHg 79%
    01:00 +10°C° 0.1 mm 1 mps 611 mmHg 77%
    02:00 +10°C° 0.1 mm 1 mps 611 mmHg 76%
    03:00 +10°C° 0.1 mm 1 mps 610 mmHg 75%
    04:00 +10°C° 0.3 mm 1 mps 610 mmHg 75%
    05:00 +10°C° 0.3 mm 1 mps 611 mmHg 74%
    06:00 +10°C° 0.3 mm 1 mps 611 mmHg 73%
    07:00 +12°C° 0.7 mm 1 mps 611 mmHg 71%
    08:00 +14°C° 0.7 mm 1 mps 612 mmHg 68%
    09:00 +15°C° 0.7 mm 2 mps 613 mmHg 65%
    10:00 +15°C° 1.1 mm 2 mps 613 mmHg 68%
    11:00 +15°C° 1.1 mm 2 mps 613 mmHg 72%
    12:00 +15°C° 1.1 mm 1 mps 613 mmHg 75%
    13:00 +15°C° 0.6 mm 2 mps 613 mmHg 74%
    14:00 +16°C° 0.6 mm 2 mps 613 mmHg 73%
    15:00 +16°C° 0.6 mm 2 mps 613 mmHg 71%
    16:00 +15°C° 1.2 mm 1 mps 613 mmHg 76%
    17:00 +14°C° 1.2 mm 1 mps 612 mmHg 82%
    18:00 +13°C° 1.2 mm 0 mps 612 mmHg 87%
    19:00 +13°C° 0.3 mm 1 mps 612 mmHg 89%
    20:00 +12°C° 0.3 mm 1 mps 612 mmHg 90%
    21:00 +12°C° 0.3 mm 1 mps 612 mmHg 92%
    22:00 +11°C° 0.2 mm 1 mps 612 mmHg 92%
    23:00 +11°C° 0.2 mm 1 mps 612 mmHg 92%
    Show more